THOR ABLESTAR DEB, 152

Orbit data source: Space-Track

THOR ABLESTAR DEB, 152 is space debris in LEO originally from a launch on Thu, 29 Jun 1961 UTC launched from the Air Force Eastern Test Range (AFETR). Debris objects in space refer to the collection of defunct objects orbiting the Earth. Examples of debris include non-operational satellites, rocket bodies, and fragments generated from explosions, collisions, or faulty payload assembly.

Loading next visibility...
Identifier
152, 1961-015AN
Orbit
LEO
Country
Flag of USUS
Related business
Manufacturer
Unknown
Mission
Spacecraft
Bus & Motor
Unknown
Mass
Unknown
Launch date (UTC)
1961-06-29 (65 years ago)
Launch vehicle
Unknown
Launch site
Air Force Eastern Test Range (AFETR)
Object type
Payload
Rocket body
Debris
Shape & HBR
Unknown shape, 0.2 m
Radar Cross Section
Medium (>0.1 m² and <1 m²)

Expand to show TLE details & history
Last TLE update: 13 hours ago

TLE from 13 hours ago
0 THOR ABLESTAR DEB
1 00152U 61015AN  26072.32766743  .00000724  00000-0  39577-3 0  9993
2 00152  66.5938 203.8374 0157369 262.1972  96.1226 14.11466005312554
Epoch: 2026-03-13T07:51Z
TLE epoch observation values (Epoch: 2026-03-13T07:51:50.465Z)
Latitude
-0°
Longitude
-85.08766°
Altitude
870.347 km
Speed
7.411 km/s
True Right ascension
13h 35m 20s
True Declination
0° 00' 00"
Sunlit
Object was in full shadow at epoch
Visualization orbit readout
Latitude
Unknown
Longitude
Unknown
Altitude
Unknown
Speed
Unknown
Apparent Right ascension
Unknown
Apparent Declination
Unknown
Sunlit
N/A
Visualization observer readout
Local Sidereal Time
01:11:11
Azimuth
Unknown
Elevation
Unknown
Doppler factor
Unknown
Orbital elements
Apogee altitude
966.552 km
Perigee altitude
738.968 km
Semi-major axis
7,230.897 km
Eccentricity
0.01574
Inclination
66.5938°
RAAN
203.8374°
Arg. of periapsis
262.1972°
True anomaly
97.91158°
Mean anomaly
96.1226°
Eccentric anomaly
97.0175°
Mean motion
3.52984 °/min
Orbital period
101.99 mins
BSTAR
0.00039577

Documentation

Showing up to 5 results
|